Weather History for KSAR - October, 2012

Change the Weather History Date:

Tuesday, October 2, 2012

  Actual Average (KBLV) Record (KBLV)
Temperature  
Mean Temperature 57 °F -  
Max Temperature 64 °F 76 °F 95 °F (1953)
Min Temperature 50 °F 47 °F 26 °F (1985)
Degree Days  
Heating Degree Days 8    
Growing Degree Days 7 (Base 50)    
Moisture  
Dew Point 54 °F    
Average Humidity 90    
Maximum Humidity 100    
Minimum Humidity 59    
Precipitation  
Precipitation 0.00 in - - ()
Sea Level Pressure  
Sea Level Pressure 29.83 in    
Wind  
Wind Speed 5 mph (NW)    
Max Wind Speed 10 mph    
Max Gust Speed -    
Visibility 10 miles    
Events Rain    
Averages and records for this station are not official NWS values.
T = Trace of Precipitation, MM = Missing Value Source: NWS Daily Summary

Daily Weather History Graph

Daily Weather History Graph

Search for Another Location

Airport or City:

Trip Planner

Search our weather history database for the weather conditions in past years. The results will help you decide how hot, cold, wet, or windy it might be!

Date:

Astronomy

Oct. 02, 2012 Rise Set
Actual Time 6:55 AM CDT 6:39 PM CDT
Civil Twilight 6:29 AM CDT 7:05 PM CDT
Nautical Twilight 5:58 AM CDT 7:36 PM CDT
Astronomical Twilight 5:28 AM CDT 8:06 PM CDT
Moon 7:55 PM CDT (10/2) 9:19 AM CDT (10/2)
Length of Visible Light 12h 36m
Length of Day
11h 43m
Waning Gibbous, 94% of the Moon is Illuminated
Oct 2
Waning Gibbous
Oct 8
Last Quarter
Oct 15
New
Oct 21
First Quarter
Oct 29
Full

Hourly Weather History & Observations

Time (CDT) Temp. Dew Point Humidity Pressure Visibility Wind Dir Wind Speed Gust Speed Precip Events Conditions
12:15 AM 57.2 °F 55.4 °F 94% 29.77 in 10.0 mi NW 4.6 mph - N/A   Mostly Cloudy
12:35 AM 55.4 °F 55.4 °F 100% 29.76 in 10.0 mi NW 5.8 mph - N/A   Mostly Cloudy
12:55 AM 55.4 °F 55.4 °F 100% 29.76 in 10.0 mi NW 4.6 mph - N/A   Scattered Clouds
1:15 AM 55.4 °F 53.6 °F 94% 29.77 in 10.0 mi NW 3.5 mph - N/A   Clear
1:35 AM 53.6 °F 53.6 °F 100% 29.77 in 10.0 mi NW 4.6 mph - N/A   Clear
1:55 AM 53.6 °F 53.6 °F 100% 29.77 in 10.0 mi NW 4.6 mph - N/A   Clear
2:15 AM 53.6 °F 53.6 °F 100% 29.76 in 10.0 mi NW 3.5 mph - N/A   Clear
2:35 AM 53.6 °F 53.6 °F 100% 29.76 in 10.0 mi NW 4.6 mph - N/A   Clear
2:55 AM 53.6 °F 53.6 °F 100% 29.75 in 10.0 mi NW 5.8 mph - N/A   Clear
3:15 AM 53.6 °F 51.8 °F 94% 29.75 in 10.0 mi NW 4.6 mph - N/A   Clear
3:35 AM 51.8 °F 51.8 °F 100% 29.75 in 10.0 mi WNW 3.5 mph - N/A   Clear
3:55 AM 51.8 °F 51.8 °F 100% 29.76 in 10.0 mi WNW 4.6 mph - N/A   Clear
4:15 AM 51.8 °F 51.8 °F 100% 29.76 in 10.0 mi WNW 3.5 mph - N/A   Clear
4:35 AM 51.8 °F 51.8 °F 100% 29.77 in 10.0 mi Calm Calm - N/A   Clear
4:55 AM 51.8 °F 51.8 °F 100% 29.78 in 10.0 mi West 3.5 mph - N/A   Clear
5:15 AM 50.0 °F 50.0 °F 100% 29.79 in 10.0 mi WNW 4.6 mph - N/A   Scattered Clouds
5:35 AM 50.0 °F 50.0 °F 100% 29.79 in 10.0 mi WNW 4.6 mph - N/A   Scattered Clouds
5:55 AM 50.0 °F 50.0 °F 100% 29.79 in 10.0 mi WNW 6.9 mph - N/A   Clear
6:15 AM 51.8 °F 51.8 °F 100% 29.80 in 10.0 mi WNW 4.6 mph - N/A   Clear
6:35 AM 50.0 °F 50.0 °F 100% 29.81 in 10.0 mi WNW 5.8 mph - N/A   Clear
6:55 AM 50.0 °F 50.0 °F 100% 29.81 in 10.0 mi WNW 5.8 mph - N/A   Clear
7:15 AM 50.0 °F 50.0 °F 100% 29.81 in 10.0 mi WNW 5.8 mph - N/A   Clear
7:35 AM 51.8 °F 51.8 °F 100% 29.81 in 10.0 mi WNW 5.8 mph - N/A   Clear
7:55 AM 51.8 °F 51.8 °F 100% 29.82 in 10.0 mi NW 4.6 mph - N/A   Clear
8:15 AM 53.6 °F 53.6 °F 100% 29.82 in 10.0 mi NW 5.8 mph - N/A   Clear
8:35 AM 55.4 °F 53.6 °F 94% 29.82 in 10.0 mi NW 6.9 mph - N/A   Scattered Clouds
9:15 AM 55.4 °F 55.4 °F 100% 29.82 in 10.0 mi NW 6.9 mph - N/A   Scattered Clouds
9:35 AM 55.4 °F 55.4 °F 100% 29.83 in 10.0 mi NNW 9.2 mph - N/A   Scattered Clouds
9:55 AM 57.2 °F 55.4 °F 94% 29.83 in 10.0 mi NW 8.1 mph - N/A   Scattered Clouds
10:15 AM 59.0 °F 55.4 °F 88% 29.83 in 10.0 mi NNW 6.9 mph - N/A   Scattered Clouds
10:35 AM 59.0 °F 55.4 °F 88% 29.84 in 10.0 mi NW 6.9 mph - N/A   Scattered Clouds
10:55 AM 60.8 °F 55.4 °F 82% 29.84 in 10.0 mi NW 8.1 mph - N/A   Mostly Cloudy
11:15 AM 60.8 °F 55.4 °F 82% 29.83 in 10.0 mi NNW 8.1 mph - N/A   Mostly Cloudy
11:35 AM 60.8 °F 55.4 °F 82% 29.83 in 10.0 mi NW 9.2 mph - N/A   Mostly Cloudy
11:55 AM 62.6 °F 55.4 °F 77% 29.83 in 10.0 mi NW 10.4 mph - N/A   Scattered Clouds
12:15 PM 62.6 °F 57.2 °F 82% 29.83 in 10.0 mi NW 6.9 mph - N/A   Scattered Clouds
12:35 PM 62.6 °F 55.4 °F 77% 29.82 in 10.0 mi NW 10.4 mph - N/A   Clear
12:55 PM 64.4 °F 55.4 °F 73% 29.82 in 10.0 mi WNW 8.1 mph - N/A   Scattered Clouds
1:15 PM 64.4 °F 55.4 °F 73% 29.82 in 10.0 mi WNW 6.9 mph - N/A   Mostly Cloudy
1:35 PM 64.4 °F 55.4 °F 73% 29.82 in 10.0 mi WNW 8.1 mph - N/A   Mostly Cloudy
1:55 PM 64.4 °F 53.6 °F 68% 29.82 in 10.0 mi NNW 4.6 mph - N/A   Overcast
2:15 PM 64.4 °F 50.0 °F 59% 29.82 in 10.0 mi NW 10.4 mph - N/A   Overcast
2:35 PM 64.4 °F 50.0 °F 59% 29.82 in 10.0 mi NW 9.2 mph - N/A   Overcast
2:55 PM 64.4 °F 50.0 °F 59% 29.82 in 10.0 mi NW 8.1 mph - N/A   Overcast
3:15 PM 62.6 °F 51.8 °F 68% 29.84 in 10.0 mi NNW 9.2 mph - N/A   Overcast
3:35 PM 62.6 °F 48.2 °F 59% 29.84 in 10.0 mi North 3.5 mph - N/A   Overcast
3:55 PM 62.6 °F 51.8 °F 68% 29.83 in 10.0 mi Calm Calm - N/A   Overcast
4:15 PM 62.6 °F 51.8 °F 68% 29.84 in 10.0 mi North 3.5 mph - N/A   Overcast
4:35 PM 62.6 °F 51.8 °F 68% 29.85 in 10.0 mi NNE 8.1 mph - N/A   Overcast
4:55 PM 60.8 °F 55.4 °F 82% 29.86 in 10.0 mi NNE 5.8 mph - N/A   Overcast
5:15 PM 60.8 °F 57.2 °F 88% 29.86 in 10.0 mi Calm Calm - N/A   Overcast
5:35 PM 60.8 °F 57.2 °F 88% 29.86 in 10.0 mi Calm Calm - N/A   Overcast
5:55 PM 60.8 °F 57.2 °F 88% 29.87 in 10.0 mi East 3.5 mph - N/A   Overcast
6:15 PM 60.8 °F 57.2 °F 88% 29.87 in 10.0 mi ENE 3.5 mph - N/A   Overcast
6:35 PM 60.8 °F 55.4 °F 82% 29.88 in 10.0 mi NE 5.8 mph - N/A   Overcast
6:55 PM 59.0 °F 57.2 °F 94% 29.88 in 10.0 mi NE 3.5 mph - N/A Rain Light Rain
7:15 PM 59.0 °F 57.2 °F 94% 29.88 in 10.0 mi North 4.6 mph - N/A Rain Rain
7:35 PM 60.8 °F 55.4 °F 82% 29.88 in 10.0 mi Calm Calm - N/A   Drizzle
7:55 PM 59.0 °F 57.2 °F 94% 29.88 in 10.0 mi Calm Calm - N/A   Light Drizzle
8:15 PM 59.0 °F 57.2 °F 94% 29.88 in 10.0 mi Calm Calm - N/A   Overcast
8:35 PM 59.0 °F 59.0 °F 100% 29.89 in 10.0 mi Calm Calm - N/A   Overcast
8:55 PM 59.0 °F 57.2 °F 94% 29.89 in 10.0 mi Calm Calm - N/A   Overcast
9:15 PM 60.8 °F 57.2 °F 88% 29.90 in 10.0 mi Calm Calm - N/A   Overcast
9:35 PM 59.0 °F 57.2 °F 94% 29.90 in 10.0 mi SW 5.8 mph - N/A   Overcast
9:55 PM 57.2 °F 57.2 °F 100% 29.91 in 10.0 mi SSW 4.6 mph - N/A   Overcast
10:15 PM 57.2 °F 57.2 °F 100% 29.91 in 10.0 mi SW 4.6 mph - N/A   Overcast
10:35 PM 57.2 °F 57.2 °F 100% 29.91 in 10.0 mi SW 3.5 mph - N/A   Overcast
10:55 PM 57.2 °F 57.2 °F 100% 29.91 in 10.0 mi SW 3.5 mph - N/A   Overcast
11:15 PM 57.2 °F 57.2 °F 100% 29.91 in 10.0 mi Calm Calm - N/A   Light Drizzle
11:35 PM 57.2 °F 57.2 °F 100% 29.91 in 10.0 mi Calm Calm - N/A   Overcast
11:55 PM 57.2 °F 57.2 °F 100% 29.91 in 10.0 mi South 3.5 mph - N/A   Overcast